Regional Weather Roundup
Issued by NWS State College, PA

Home | Current Version | Previous Version | Text Only | Print | Product List | Glossary On
Versions: 1 2 3 4 5 6 7 8 9 10 11 12 13 14 15 16 17 18 19 20 21 22 23 24 25 26 27 28 29 30 31 32 33 34 35 36 37 38 39 40 41 42 43 44 45 46 47 48 49 50
418
ASUS41 KCTP 180710
RWRCTP

REGIONAL WEATHER ROUNDUP
NATIONAL WEATHER SERVICE STATE COLLEGE PA
200 AM EST SAT NOV 18 2017

Note: "fair" indicates few or no clouds below 12,000 feet with no
significant weather and/or obstructions to visibility.

* = STATION THAT DOES NOT REPORT PRECIPITATION /E.G. RAIN...SNOW...ETC/
    THUNDER OR FOG.

PAZ002>004-007>009-013>016-020>023-029>032-180800-
WESTERN PENNSYLVANIA

CITY           SKY/WX    TMP DP  RH WIND       PRES   REMARKS
ERIE           CLOUDY    43  26  51 S20G26    29.75F
MEADVILLE      CLOUDY    37  27  67 VRB3      29.78F
FRANKLIN*      CLOUDY    36  24  62 S9        29.81F
NEW CASTLE     FAIR      37  28  70 VRB3      29.81F
BEAVER COUNTY  NOT AVBL
BUTLER*        CLOUDY    36  25  64 SE3       29.82F
PITTSBURGH INT CLOUDY    35  28  75 SE3       29.81F
PITTSBURGH     CLOUDY    36  26  67 S7        29.82F
INDIANA*       CLEAR     41  25  52 S8        29.87F
LATROBE        CLOUDY    28  27  93 CALM      29.84F
WASHINGTON CO* CLOUDY    40  26  57 S6        29.84F
$$

PAZ004>006-010>012-017>019-024>028-033>037-041-042-045-046-049>053-180800-
CENTRAL PENNSYLVANIA

CITY           SKY/WX    TMP DP  RH WIND       PRES   REMARKS
BRADFORD       CLOUDY    34  24  67 SE8       29.82F
DUBOIS         CLOUDY    33  23  66 SE10      29.83F
CLEARFIELD     CLOUDY    26  24  92 N6        29.89F
JOHNSTOWN      CLOUDY    38  22  52 S7        29.86F
ALTOONA        CLOUDY    35  25  66 CALM      29.92F
STATE COLLEGE  CLOUDY    30  24  80 CALM      29.93F
WILLIAMSPORT   PTCLDY    32  23  69 E3        29.97F
SELINSGROVE    PTCLDY    28  27  96 CALM      30.00F
FT INDIANTOWN  PTCLDY    28  28  99 NE5       30.00F
CAPITAL CITY   PTCLDY    33  27  78 CALM      30.01F
HARRISBURG     CLOUDY    34  29  82 E7        30.01F
YORK           PTCLDY    29  27  92 CALM      30.00F
$$

PAZ038>040-043-044-047-048-054-055-060>062-067>071-180800-
EASTERN PENNSYLVANIA

CITY           SKY/WX    TMP DP  RH WIND       PRES   REMARKS
SCRANTON       CLOUDY    30  20  66 NE5       29.97F
MOUNT POCONO   CLOUDY    22  19  89 NW3       29.95F
ALLENTOWN      PTCLDY    29  22  75 CALM      30.03F
QUAKERTOWN*    CLOUDY    27  25  93 CALM      30.04F
READING        CLOUDY    30  29  96 CALM      30.02F
LANCASTER      MOCLDY    30  28  92 E6        30.01F
COATESVILLE    MOSUNNY   36  25  64 CALM      30.03F
POTTSTOWN      CLOUDY    28  24  85 CALM      30.05F
BLUE BELL      CLOUDY    28  28 100 CALM      30.06F
DOYLESTOWN     CLOUDY    28  23  81 CALM      30.03F
WILLOW GROVE   NOT AVBL
NORTH PHILA    CLOUDY    33  26  75 CALM      30.06F
PHILADELPHIA   CLOUDY    36  27  69 CALM      30.06F
$$




USA.gov is the U.S. government's official web portal to all federal, state and local government web resources and services.